Rockford, IL

2:33 PM CDT on June 25, 2017 (GMT -0500)
Greater Rockford

Weather History for KRFD - March, 2013

Change the Weather History Date:

Tuesday, March 26, 2013

  Actual Average Record
Temperature  
Mean Temperature 37 °F 41 °F  
Max Temperature 42 °F 52 °F 81 °F (1907)
Min Temperature 32 °F 31 °F 5 °F (1960)
Degree Days  
Heating Degree Days 28 24  
Month to date heating degree days 971 751  
Since 1 July heating degree days 5708 5753  
Cooling Degree Days 0 0  
Month to date cooling degree days 0 0  
Year to date cooling degree days 0 0  
Moisture  
Dew Point 24 °F    
Average Humidity 59    
Maximum Humidity 72    
Minimum Humidity 46    
Precipitation  
Precipitation T in 0.09 in 1.38 in (1916)
Month to date precipitation 2.29 1.86  
Year to date precipitation 8.36 4.64  
Snow  
Snow T in 0.10 in 2.20 in (1928)
Month to date snowfall 13.9 4.3  
Since 1 July snowfall 40.5 35.3  
Snow Depth 0.00 in    
Sea Level Pressure  
Sea Level Pressure 30.22 in    
Wind  
Wind Speed 8 mph (NW)    
Max Wind Speed 14 mph    
Max Gust Speed 17 mph    
Visibility 10 miles    
Events Snow    
T = Trace of Precipitation, MM = Missing Value Source: NWS Daily Summary

Daily Weather History Graph

Daily Weather History Graph

Search for Another Location

Airport or City:

Trip Planner

Search our weather history database for the weather conditions in past years. The results will help you decide how hot, cold, wet, or windy it might be!

Date:

Astronomy

Mar. 26, 2013 Rise Set
Actual Time 6:48 AM CDT 7:15 PM CDT
Civil Twilight 6:20 AM CDT 7:43 PM CDT
Nautical Twilight 5:47 AM CDT 8:16 PM CDT
Astronomical Twilight 5:13 AM CDT 8:51 PM CDT
Moon 6:52 PM CDT (3/26) 6:05 AM CDT (3/26)
Length of Visible Light 13h 23m
Length of Day
12h 26m
Waxing Gibbous, 99% of the Moon is Illuminated
Mar 26
Waxing Gibbous
Mar 27
Full
Apr 2
Last Quarter
Apr 10
New
Apr 18
First Quarter

Hourly Weather History & Observations

Time (CDT) Temp. Windchill Dew Point Humidity Pressure Visibility Wind Dir Wind Speed Gust Speed Precip Events Conditions
12:54 AM 33.1 °F 26.9 °F 25.0 °F 72% 30.14 in 10.0 mi NNW 6.9 mph - N/A   Overcast
1:54 AM 33.1 °F 27.7 °F 25.0 °F 72% 30.15 in 10.0 mi NW 5.8 mph - N/A   Overcast
2:54 AM 33.1 °F 26.9 °F 25.0 °F 72% 30.14 in 10.0 mi NNW 6.9 mph - N/A   Overcast
3:54 AM 33.1 °F 26.1 °F 24.1 °F 70% 30.15 in 10.0 mi NNW 8.1 mph - N/A   Overcast
4:54 AM 32.0 °F 24.2 °F 24.1 °F 73% 30.16 in 10.0 mi NNW 9.2 mph - 0.00 in Snow Light Snow
5:54 AM 32.0 °F 25.6 °F 25.0 °F 75% 30.18 in 9.0 mi NNW 6.9 mph - 0.00 in Snow Light Snow
6:54 AM 32.0 °F 24.2 °F 24.1 °F 73% 30.19 in 10.0 mi NNW 9.2 mph - 0.00 in   Overcast
7:54 AM 32.0 °F 24.8 °F 24.1 °F 73% 30.22 in 10.0 mi NNW 8.1 mph - N/A   Overcast
8:54 AM 33.1 °F 25.5 °F 24.1 °F 70% 30.23 in 10.0 mi NNW 9.2 mph - N/A   Overcast
9:54 AM 36.0 °F 28.5 °F 24.1 °F 62% 30.25 in 10.0 mi NNW 10.4 mph - N/A   Mostly Cloudy
10:54 AM 37.0 °F 30.4 °F 25.0 °F 62% 30.24 in 10.0 mi NW 9.2 mph - N/A   Scattered Clouds
11:54 AM 39.0 °F 33.4 °F 21.9 °F 50% 30.24 in 10.0 mi NW 8.1 mph - N/A   Partly Cloudy
12:54 PM 39.9 °F 32.5 °F 23.0 °F 51% 30.24 in 10.0 mi WNW 12.7 mph - N/A   Scattered Clouds
1:54 PM 41.0 °F 35.8 °F 23.0 °F 49% 30.24 in 10.0 mi WNW 8.1 mph - N/A   Mostly Cloudy
2:54 PM 42.1 °F 37.1 °F 25.0 °F 51% 30.24 in 10.0 mi WNW 8.1 mph - N/A   Mostly Cloudy
3:54 PM 41.0 °F 33.9 °F 23.0 °F 49% 30.24 in 10.0 mi WNW 12.7 mph - N/A   Mostly Cloudy
4:54 PM 39.0 °F 31.8 °F 24.1 °F 55% 30.24 in 10.0 mi NW 11.5 mph - N/A   Mostly Cloudy
5:54 PM 37.9 °F 32.7 °F 24.1 °F 57% 30.25 in 10.0 mi NW 6.9 mph - N/A   Mostly Cloudy
6:54 PM 37.9 °F 32.7 °F 25.0 °F 60% 30.26 in 10.0 mi NNW 6.9 mph - 0.00 in   Mostly Cloudy
7:54 PM 37.0 °F 31.6 °F 25.0 °F 62% 30.27 in 9.0 mi NW 6.9 mph - 0.00 in   Mostly Cloudy
8:54 PM 36.0 °F 32.1 °F 26.1 °F 67% 30.28 in 10.0 mi WNW 4.6 mph - N/A   Overcast
9:54 PM 36.0 °F 31.1 °F 24.1 °F 62% 30.29 in 10.0 mi NW 5.8 mph - N/A   Overcast
10:54 PM 35.1 °F 28.6 °F 25.0 °F 67% 30.29 in 10.0 mi NW 8.1 mph - N/A   Overcast
11:54 PM 34.0 °F 28.8 °F 25.0 °F 70% 30.30 in 10.0 mi NW 5.8 mph - N/A   Overcast